{"data":{"norad_id":62037,"intl_designator":"2024-216F","name":"STARLINK-32595","alt_names":[],"object_type":"PAYLOAD","status":"ACTIVE","operator":null,"country":"US","launch_date":"2024-11-21","launch_site_code":"AFETR","launch_vehicle":null,"mission":null,"orbit_class":"UNKNOWN","rcs_meters":null,"size_class":null,"mass_kg":null,"dimensions":null,"purposes":["comms"],"wikipedia_slug":null,"has_3d_model":false,"image_url":null,"decayed_at":null,"tle_current":{"epoch":"2026-05-25T03:13:00.433056Z","epoch_age_seconds":59354,"freshness":"FRESH","line1":"1 62037U 24216F   26145.13403279  .00013550  00000+0  50094-3 0  9994","line2":"2 62037  42.9996 191.7995 0001585 263.0332  97.0339 15.27585126 85497","mean_motion":15.27585126,"eccentricity":0.0001585,"inclination_deg":42.9996,"raan_deg":191.7995,"arg_perigee_deg":263.0332,"mean_anomaly_deg":97.0339,"bstar":0.00050094,"rev_number":8549,"period_min":94.266432389968,"perigee_km":481.94625143111,"apogee_km":484.1212425579,"semimajor_km":6861.1707469945,"source":"CELESTRAK","updated_at":"2026-05-25T13:38:19.524472Z"}}}